User: anonymous   Login
Location: ROBOsky.com Wild Flower Ridge Observatory
(43.9736°N, 79.9739°W)
Time: 14:24:46
(UTC-04:00)
Language:

Cosmos 1190 Rocket - Orbit

View from above orbital plane
View from above orbital plane
View from above satellite
View from above satellite

Ground track
Ground track

The orbit data is extracted from the following two-line orbital elements,

1 11870U 80056B   17265.90554392  .00000052  00000-0  26326-4 0  9994
2 11870  74.0543  28.2179 0017214 314.5541  45.4206 14.36863363948846
Epoch (UTC): 22 September 2017 21:43:58
Eccentricity: 0.0017214
inclination: 74.0543°
perigee height: 756 km
apogee height: 781 km
right ascension of ascending node: 28.2179°
argument of perigee: 314.5541°
revolutions per day: 14.36863363
mean anomaly at epoch: 45.4206°
orbit number at epoch: 94884

The dashed part of the orbit path shows where the satellite is in the earth's shadow,  

DLR